| time (UTC) | temp F | wind direction | speed MPH | gust MPH | rain 1hr in | rain 24hr in | rain mn in | humidity % | barometer mb |
| 20260904090040 | 82 | 215 | 3.0 | 7.0 | 0.00 | 0.00 | 0.00 | 73 | 1012.0 |
| 20260904084538 | 82 | 212 | 4.0 | 7.0 | 0.00 | 0.00 | 0.00 | 73 | 1012.0 |
| 20260904083037 | 81 | 214 | 3.0 | 6.0 | 0.00 | 0.00 | 0.00 | 74 | 1011.9 |
| 20260904081537 | 81 | 213 | 4.0 | 7.0 | 0.00 | 0.00 | 0.00 | 75 | 1011.9 |
| 20260904080035 | 81 | 216 | 3.0 | 6.0 | 0.00 | 0.00 | 0.00 | 75 | 1012.1 |
| 20260904074549 | 81 | 208 | 2.0 | 5.0 | 0.00 | 0.00 | 0.00 | 75 | 1012.1 |
| 20260904073034 | 81 | 186 | 1.0 | 4.0 | 0.00 | 0.00 | 0.00 | 76 | 1012.2 |
| 20260904071536 | 81 | 184 | 1.0 | 4.0 | 0.00 | 0.00 | 0.00 | 76 | 1012.3 |
| 20260904070029 | 81 | 184 | 1.0 | 4.0 | 0.00 | 0.00 | 0.00 | 77 | 1012.5 |
| 20260904064533 | 81 | 183 | 1.0 | 3.0 | 0.00 | 0.00 | 0.00 | 77 | 1012.4 |
| 20260904063038 | 80 | 182 | 0.0 | 4.0 | 0.00 | 0.00 | 0.00 | 78 | 1012.6 |
| 20260904060028 | 79 | 177 | 0.0 | 0.0 | 0.00 | 0.00 | 0.00 | 81 | 1012.6 |
| 20260904054532 | 80 | 177 | 0.0 | 0.0 | 0.00 | 0.00 | 0.00 | 80 | 1012.7 |
| 20260904053023 | 80 | 177 | 0.0 | 1.0 | 0.00 | 0.00 | 0.00 | 79 | 1012.6 |
| 20260904051520 | 81 | 196 | 0.0 | 3.0 | 0.00 | 0.00 | 0.00 | 77 | 1012.6 |
| 20260904050018 | 81 | 196 | 1.0 | 3.0 | 0.00 | 0.00 | 0.00 | 77 | 1012.5 |
| 20260904044518 | 80 | 196 | 0.0 | 2.0 | 0.00 | 0.00 | 0.00 | 81 | 1012.6 |
| 20260904043017 | 80 | 196 | 0.0 | 0.0 | 0.00 | 0.00 | 0.00 | 80 | 1012.6 |
| 20260904041524 | 81 | 196 | 0.0 | 0.0 | 0.00 | 0.00 | 0.00 | 80 | 1012.5 |
| 20260904040016 | 81 | 196 | 0.0 | 2.0 | 0.00 | 0.00 | 0.00 | 79 | 1012.3 |
| 20260904034515 | 82 | 196 | 0.0 | 1.0 | 0.00 | 0.00 | 0.00 | 79 | 1012.3 |
| 20260904033015 | 82 | 196 | 0.0 | 0.0 | 0.00 | 0.00 | 0.00 | 77 | 1012.3 |
| 20260904031514 | 83 | 196 | 0.0 | 3.0 | 0.00 | 0.00 | 0.00 | 76 | 1012.2 |
| 20260904030014 | 83 | 196 | 0.0 | 1.0 | 0.00 | 0.00 | 0.00 | 76 | 1012.3 |
| 20260904024518 | 83 | 196 | 0.0 | 1.0 | 0.00 | 0.00 | 0.00 | 76 | 1012.2 |
| 20260904023015 | 83 | 196 | 0.0 | 1.0 | 0.00 | 0.00 | 0.00 | 77 | 1012.2 |
| 20260904021529 | 84 | 196 | 0.0 | 1.0 | 0.00 | 0.00 | 0.00 | 77 | 1011.9 |
| 20260904020012 | 84 | 196 | 0.0 | 0.0 | 0.00 | 0.00 | 0.00 | 75 | 1012.0 |
| 20260904014511 | 84 | 196 | 0.0 | 0.0 | 0.00 | 0.00 | 0.00 | 75 | 1011.6 |
| 20260904013011 | 85 | 196 | 0.0 | 0.0 | 0.00 | 0.00 | 0.00 | 74 | 1011.5 |
| 20260904011511 | 86 | 196 | 0.0 | 0.0 | 0.00 | 0.00 | 0.00 | 74 | 1011.4 |
| 20260904010013 | 87 | 196 | 0.0 | 0.0 | 0.00 | 0.00 | 0.00 | 72 | 1011.2 |
| 20260904004510 | 88 | 196 | 0.0 | 0.0 | 0.00 | 0.00 | 0.00 | 71 | 1011.2 |
| 20260904003010 | 88 | 196 | 0.0 | 0.0 | 0.00 | 0.00 | 0.00 | 70 | 1011.2 |
| 20260904001509 | 90 | 196 | 0.0 | 0.0 | 0.00 | 0.00 | 0.00 | 66 | 1011.3 |
| 20260904000008 | 91 | 196 | 0.0 | 0.0 | 0.00 | 0.00 | 0.00 | 62 | 1011.2 |
| 20260903234511 | 93 | 196 | 0.0 | 3.0 | 0.00 | 0.00 | 0.00 | 58 | 1011.3 |
| 20260903233007 | 93 | 196 | 1.0 | 5.0 | 0.00 | 0.00 | 0.00 | 57 | 1011.2 |
| 20260903231508 | 95 | 217 | 1.0 | 5.0 | 0.00 | 0.00 | 0.00 | 53 | 1011.2 |
| 20260903224506 | 96 | 219 | 2.0 | 7.0 | 0.00 | 0.00 | 0.00 | 52 | 1011.2 |
| 20260903223005 | 95 | 200 | 6.0 | 9.0 | 0.00 | 0.00 | 0.00 | 52 | 1011.1 |
| 20260903221509 | 96 | 194 | 4.0 | 7.0 | 0.00 | 0.00 | 0.00 | 52 | 1011.2 |
| 20260903220005 | 96 | 223 | 3.0 | 11.0 | 0.00 | 0.00 | 0.00 | 53 | 1011.2 |
| 20260903214502 | 96 | 162 | 4.0 | 8.0 | 0.00 | 0.00 | 0.00 | 52 | 1011.2 |
| 20260903213006 | 96 | 205 | 4.0 | 8.0 | 0.00 | 0.00 | 0.00 | 52 | 1011.3 |
| 20260903211501 | 97 | 232 | 4.0 | 10.0 | 0.00 | 0.00 | 0.00 | 52 | 1011.4 |
| 20260903204603 | 96 | 179 | 6.0 | 12.0 | 0.00 | 0.00 | 0.00 | 53 | 1011.6 |
| 20260903203058 | 97 | 215 | 3.0 | 9.0 | 0.00 | 0.00 | 0.00 | 53 | 1011.7 |
| 20260903201557 | 97 | 223 | 4.0 | 9.0 | 0.00 | 0.00 | 0.00 | 51 | 1011.7 |
| 20260903200054 | 97 | 219 | 2.0 | 8.0 | 0.00 | 0.00 | 0.00 | 51 | 1012.0 |
| 20260903194552 | 96 | 202 | 6.0 | 10.0 | 0.00 | 0.00 | 0.00 | 52 | 1012.1 |
| 20260903193050 | 96 | 192 | 5.0 | 10.0 | 0.00 | 0.00 | 0.00 | 54 | 1012.3 |
| 20260903191548 | 96 | 220 | 4.0 | 12.0 | 0.00 | 0.00 | 0.00 | 55 | 1012.4 |
| 20260903190046 | 95 | 209 | 5.0 | 9.0 | 0.00 | 0.00 | 0.00 | 56 | 1012.6 |
| 20260903184546 | 95 | 157 | 5.0 | 9.0 | 0.00 | 0.00 | 0.00 | 57 | 1012.6 |
| 20260903183046 | 94 | 188 | 4.0 | 10.0 | 0.00 | 0.00 | 0.00 | 58 | 1012.7 |
| 20260903181546 | 95 | 215 | 5.0 | 12.0 | 0.00 | 0.00 | 0.00 | 57 | 1012.8 |
| 20260903180107 | 95 | 209 | 6.0 | 10.0 | 0.00 | 0.00 | 0.00 | 57 | 1013.0 |
| 20260903174541 | 96 | 236 | 3.0 | 8.0 | 0.00 | 0.00 | 0.00 | 55 | 1012.9 |
| 20260903173038 | 93 | 214 | 2.0 | 10.0 | 0.00 | 0.00 | 0.00 | 60 | 1013.1 |
| 20260903171547 | 92 | 182 | 4.0 | 9.0 | 0.00 | 0.00 | 0.00 | 62 | 1013.1 |
| 20260903170036 | 91 | 208 | 7.0 | 10.0 | 0.00 | 0.00 | 0.00 | 62 | 1013.2 |
| 20260903163041 | 92 | 211 | 5.0 | 11.0 | 0.00 | 0.00 | 0.00 | 60 | 1013.5 |
| 20260903161533 | 91 | 215 | 5.0 | 10.0 | 0.00 | 0.00 | 0.00 | 62 | 1013.6 |
| 20260903160031 | 91 | 188 | 3.0 | 10.0 | 0.00 | 0.00 | 0.00 | 64 | 1013.7 |
| 20260903154529 | 90 | 198 | 3.0 | 7.0 | 0.00 | 0.00 | 0.00 | 65 | 1013.6 |
| 20260903153029 | 89 | 186 | 5.0 | 10.0 | 0.00 | 0.00 | 0.00 | 64 | 1013.5 |
| 20260903151528 | 88 | 222 | 4.0 | 10.0 | 0.00 | 0.00 | 0.00 | 67 | 1013.6 |
| 20260903150026 | 86 | 232 | 6.0 | 11.0 | 0.00 | 0.00 | 0.00 | 68 | 1013.5 |
| 20260903144522 | 86 | 223 | 5.0 | 10.0 | 0.00 | 0.00 | 0.00 | 69 | 1013.5 |
| 20260903143025 | 85 | 211 | 5.0 | 9.0 | 0.00 | 0.00 | 0.00 | 70 | 1013.4 |
| 20260903141519 | 84 | 223 | 5.0 | 8.0 | 0.00 | 0.00 | 0.00 | 72 | 1013.4 |
| 20260903140023 | 83 | 218 | 3.0 | 10.0 | 0.00 | 0.00 | 0.00 | 73 | 1013.5 |
| 20260903134517 | 82 | 204 | 5.0 | 8.0 | 0.00 | 0.00 | 0.00 | 74 | 1013.5 |
| 20260903133017 | 81 | 201 | 4.0 | 8.0 | 0.00 | 0.00 | 0.00 | 76 | 1013.5 |
| 20260903131515 | 80 | 220 | 5.0 | 12.0 | 0.00 | 0.00 | 0.00 | 77 | 1013.5 |
| 20260903130022 | 79 | 216 | 6.0 | 11.0 | 0.00 | 0.00 | 0.00 | 78 | 1013.6 |
| 20260903124514 | 79 | 207 | 4.0 | 7.0 | 0.00 | 0.00 | 0.00 | 79 | 1013.7 |
| 20260903123018 | 78 | 192 | 3.0 | 7.0 | 0.00 | 0.00 | 0.00 | 80 | 1013.7 |
| 20260903121513 | 77 | 226 | 4.0 | 7.0 | 0.00 | 0.00 | 0.00 | 81 | 1013.5 |
| 20260903120013 | 76 | 210 | 5.0 | 7.0 | 0.00 | 0.00 | 0.00 | 82 | 1013.5 |
| 20260903114512 | 76 | 207 | 4.0 | 6.0 | 0.00 | 0.00 | 0.00 | 82 | 1013.5 |
| 20260903113023 | 77 | 176 | 1.0 | 6.0 | 0.00 | 0.00 | 0.00 | 81 | 1013.5 |
| 20260903111509 | 78 | 202 | 2.0 | 7.0 | 0.00 | 0.00 | 0.00 | 79 | 1013.5 |
| 20260903110014 | 78 | 225 | 2.0 | 7.0 | 0.00 | 0.00 | 0.00 | 78 | 1013.3 |
| 20260903104508 | 78 | 207 | 2.0 | 6.0 | 0.00 | 0.00 | 0.00 | 79 | 1013.3 |
| 20260903103007 | 77 | 198 | 1.0 | 5.0 | 0.00 | 0.00 | 0.00 | 81 | 1013.2 |
| 20260903101507 | 76 | 191 | 2.0 | 4.0 | 0.00 | 0.00 | 0.00 | 81 | 1013.2 |
| 20260903100004 | 77 | 200 | 0.0 | 4.0 | 0.00 | 0.00 | 0.00 | 80 | 1013.3 |
| 20260903094503 | 79 | 203 | 3.0 | 5.0 | 0.00 | 0.00 | 0.00 | 77 | 1013.3 |
| 20260903093200 | 79 | 214 | 3.0 | 5.0 | 0.00 | 0.00 | 0.00 | 76 | 1013.3 |
| 20260903091558 | 80 | 208 | 2.0 | 7.0 | 0.00 | 0.00 | 0.00 | 75 | 1013.3 |